TimeEST,TemperatureF,Dew PointF,Humidity,Sea Level PressureIn,VisibilityMPH,Wind Direction,Wind SpeedMPH,Gust SpeedMPH,PrecipitationIn,Events,Conditions,WindDirDegrees,DateUTC
6:24 AM,78.8,68.0,69,30.06,6.2,NE,13.8,-,N/A,,Mostly Cloudy,50,2014-03-09 11:24:00
7:00 AM,78,69,67,30.07,6,NE,12.7,,,,,50,2014-03-09 12:00:00
7:00 AM,78.8,69.8,74,30.06,6.2,NE,12.7,-,N/A,,Partly Cloudy,50,2014-03-09 12:00:00
8:00 AM,78.8,69.8,74,30.06,6.2,East,11.5,-,N/A,,Partly Cloudy,80,2014-03-09 13:00:00
9:00 AM,80.6,71.6,74,30.09,6.2,ENE,12.7,-,N/A,,Partly Cloudy,70,2014-03-09 14:00:00
10:00 AM,80.6,73.4,79,30.09,6.2,ENE,13.8,-,N/A,,Partly Cloudy,60,2014-03-09 15:00:00
11:00 AM,82.4,71.6,70,30.09,6.2,ENE,13.8,-,N/A,,Partly Cloudy,60,2014-03-09 16:00:00
12:00 PM,84.2,71.6,66,30.09,6.2,ENE,13.8,-,N/A,,Partly Cloudy,60,2014-03-09 17:00:00
1:00 PM,83,71,58,30.08,6,ENE,12.7,,,,Scattered Clouds,60,2014-03-09 18:00:00
1:00 PM,82.4,69.8,66,30.06,6.2,ENE,12.7,-,N/A,,Partly Cloudy,60,2014-03-09 18:00:00
2:00 PM,82.4,71.6,70,30.04,6.2,ENE,13.8,-,N/A,,Partly Cloudy,60,2014-03-09 19:00:00
3:00 PM,82.4,69.8,66,30.04,6.2,ENE,12.7,-,N/A,,Partly Cloudy,60,2014-03-09 20:00:00
3:56 PM,82.4,71.6,70,30.01,6.2,ENE,12.7,-,N/A,,Partly Cloudy,60,2014-03-09 20:56:00
4:50 PM,82.4,71.6,70,30.01,6.2,ENE,12.7,-,N/A,,Partly Cloudy,60,2014-03-09 21:50:00
5:51 PM,80.6,71.6,74,30.01,6.2,ENE,12.7,-,N/A,,Partly Cloudy,70,2014-03-09 22:51:00
6:56 PM,80.6,69.8,70,30.04,6.2,East,8.1,-,N/A,,Partly Cloudy,90,2014-03-09 23:56:00
7:00 PM,80,69,62,30.04,6,East,8.1,,,,Scattered Clouds,90,2014-03-10 00:00:00
8:00 PM,77.0,71.6,83,30.04,6.2,East,9.2,-,N/A,,Partly Cloudy,100,2014-03-10 01:00:00
8:51 PM,77.0,71.6,83,30.06,6.2,East,10.4,-,N/A,,Partly Cloudy,100,2014-03-10 01:51:00
9:50 PM,77.0,69.8,78,30.06,6.2,East,9.2,-,N/A,,Partly Cloudy,100,2014-03-10 02:50:00